Location: Newark
(25.6108°S, 54.5803°W)
Time: 21:01:54
(UTC+00:00)

Courier 1B - Pass Details

Date: 29 October 2020
Orbit: 962 x 1209 km, 28.3° (Epoch: 24 November)

Event Time Altitude Azimuth Distance (km) Brightness Sun altitude
Rises 00:10:05 0° 312° (NW) 3,873 10.8 -29.0°
Reaches altitude 10° 00:12:56 10° 319° (NW) 2,957 10.1 -29.6°
Enters shadow 00:16:11 26° 335° (NNW) 2,048 9.0 -30.2°
Maximum altitude 00:19:45 42° 27° (NNE) 1,591 - -30.8°
Drops below altitude 10° 00:26:55 10° 94° (E) 3,117 - -32.1°
Sets 00:29:59 0° 101° (E) 4,102 - -32.7°
